Saranac Lake, NY

10:12 AM EDT on May 27, 2017 (GMT -0400)
Adirondack Regional

Weather History for KSLK - January, 2012

Change the Weather History Date:

Saturday, January 7, 2012

  Actual Average Record
Temperature  
Mean Temperature 32 °F 14 °F  
Max Temperature 40 °F 25 °F 48 °F (2008)
Min Temperature 23 °F 3 °F -21 °F (1988)
Degree Days  
Heating Degree Days 33 51  
Month to date heating degree days 330 357  
Since 1 July heating degree days 3372 4056  
Cooling Degree Days 0 0  
Month to date cooling degree days 0  
Year to date cooling degree days 0  
Moisture  
Dew Point 29 °F    
Average Humidity 89    
Maximum Humidity 100    
Minimum Humidity 78    
Precipitation  
Precipitation 0.07 in 0.07 in 0.85 in (1954)
Month to date precipitation 0.30 0.52  
Year to date precipitation 0.30 0.52  
Sea Level Pressure  
Sea Level Pressure 29.69 in    
Wind  
Wind Speed 4 mph (SW)    
Max Wind Speed 16 mph    
Max Gust Speed 24 mph    
Visibility 6 miles    
Events Fog , Rain , Snow    
T = Trace of Precipitation, MM = Missing Value Source: NWS Daily Summary

Daily Weather History Graph

Daily Weather History Graph

Search for Another Location

Airport or City:

Trip Planner

Search our weather history database for the weather conditions in past years. The results will help you decide how hot, cold, wet, or windy it might be!

Date:

Astronomy

Jan. 07, 2012 Rise Set
Actual Time 7:32 AM EST 4:33 PM EST
Civil Twilight 6:59 AM EST 5:06 PM EST
Nautical Twilight 6:23 AM EST 5:42 PM EST
Astronomical Twilight 5:48 AM EST 6:18 PM EST
Moon 3:14 PM EST (1/7) 6:02 AM EST (1/7)
Length of Visible Light 10h 06m
Length of Day
9h 00m
Waxing Gibbous, 97% of the Moon is Illuminated
Jan 7
Waxing Gibbous
Jan 9
Full
Jan 16
Last Quarter
Jan 23
New
Jan 30
First Quarter

Hourly Weather History & Observations

Time (EST) Temp. Windchill Dew Point Humidity Pressure Visibility Wind Dir Wind Speed Gust Speed Precip Events Conditions
12:51 AM 32.0 °F 26.4 °F 28.9 °F 88% 29.67 in 10.0 mi WSW 5.8 mph - N/A   Mostly Cloudy
1:51 AM 28.9 °F 21.1 °F 27.0 °F 92% 29.68 in 9.0 mi SW 8.1 mph - N/A   Clear
2:51 AM 27.0 °F - 26.1 °F 96% 29.67 in 7.0 mi Calm Calm - N/A   Scattered Clouds
3:51 AM 28.0 °F - 27.0 °F 96% 29.67 in 7.0 mi Calm Calm - N/A   Partly Cloudy
4:51 AM 27.0 °F - 27.0 °F 100% 29.65 in 4.0 mi Calm Calm - N/A   Partly Cloudy
5:32 AM 24.8 °F 19.1 °F 24.8 °F 100% 29.61 in 2.5 mi SSW 4.6 mph - N/A   Clear
5:42 AM 28.4 °F 23.3 °F 24.8 °F 86% 29.61 in 1.0 mi SSW 4.6 mph - N/A   Partly Cloudy
5:51 AM 28.0 °F 24.2 °F 27.0 °F 96% 29.66 in 0.5 mi SSW 3.5 mph - N/A Fog Light Freezing Fog
5:59 AM 28.4 °F 24.6 °F 28.4 °F 100% 29.60 in 2.0 mi SSW 3.5 mph - N/A   Mostly Cloudy
6:07 AM 28.4 °F - 26.6 °F 93% 29.61 in 3.0 mi Calm Calm - N/A   Overcast
6:51 AM 25.0 °F - 24.1 °F 96% 29.68 in 7.0 mi Calm Calm - N/A   Clear
7:14 AM 23.0 °F - 21.2 °F 93% 29.61 in 1.2 mi Calm Calm - N/A   Scattered Clouds
7:19 AM 23.0 °F 18.4 °F 21.2 °F 93% 29.60 in 0.5 mi NE 3.5 mph - N/A Fog Light Freezing Fog
7:32 AM 24.8 °F - 24.8 °F 100% 29.60 in 2.5 mi Calm Calm - N/A   Scattered Clouds
7:40 AM 24.8 °F - 24.8 °F 100% 29.60 in 3.0 mi Calm Calm - N/A   Mostly Cloudy
7:51 AM 24.1 °F - 23.0 °F 96% 29.67 in 4.0 mi Calm Calm - N/A   Mostly Cloudy
8:51 AM 28.0 °F - 27.0 °F 96% 29.68 in 8.0 mi Calm Calm - N/A   Overcast
9:51 AM 32.0 °F - 30.0 °F 92% 29.67 in 7.0 mi Calm Calm - N/A   Overcast
10:51 AM 32.0 °F 28.7 °F 30.9 °F 96% 29.65 in 5.0 mi South 3.5 mph - 0.00 in   Overcast
11:38 AM 35.6 °F 32.8 °F 32.0 °F 87% 29.59 in 9.0 mi West 3.5 mph - 0.00 in   Overcast
11:51 AM 36.0 °F 33.3 °F 32.0 °F 86% 29.64 in 10.0 mi WSW 3.5 mph - 0.00 in   Overcast
12:51 PM 36.0 °F 32.1 °F 32.0 °F 86% 29.64 in 10.0 mi SW 4.6 mph - N/A   Overcast
1:46 PM 39.2 °F 34.2 °F 33.8 °F 81% 29.60 in 10.0 mi WSW 6.9 mph - N/A   Mostly Cloudy
1:51 PM 39.0 °F 34.0 °F 33.1 °F 79% 29.65 in 10.0 mi WSW 6.9 mph - N/A   Mostly Cloudy
2:00 PM 39.2 °F 35.0 °F 33.8 °F 81% 29.60 in 10.0 mi SW 5.8 mph - N/A   Mostly Cloudy
2:18 PM 39.2 °F 35.0 °F 33.8 °F 81% 29.60 in 10.0 mi SW 5.8 mph - N/A   Mostly Cloudy
2:51 PM 39.0 °F 34.8 °F 33.1 °F 79% 29.65 in 10.0 mi SW 5.8 mph - N/A   Mostly Cloudy
3:28 PM 39.2 °F 33.0 °F 33.8 °F 81% 29.63 in 10.0 mi SW 9.2 mph - N/A   Mostly Cloudy
3:51 PM 37.9 °F 32.7 °F 33.1 °F 83% 29.68 in 9.0 mi SW 6.9 mph - N/A   Overcast
4:13 PM 37.4 °F 32.1 °F 33.8 °F 87% 29.65 in 8.0 mi SW 6.9 mph - 0.00 in Rain Light Rain
4:51 PM 37.0 °F 31.6 °F 34.0 °F 89% 29.72 in 8.0 mi SW 6.9 mph - 0.00 in   Overcast
5:51 PM 37.0 °F 28.9 °F 33.1 °F 86% 29.74 in 4.0 mi West 12.7 mph 18.4 mph 0.01 in Rain Light Rain
6:30 PM 35.6 °F 32.8 °F 32.0 °F 87% 29.72 in 3.0 mi Variable 3.5 mph - 0.01 in Rain Light Rain
6:36 PM 33.8 °F 28.6 °F 32.0 °F 93% 29.73 in 1.8 mi Variable 5.8 mph - 0.02 in Snow Light Snow
6:46 PM 33.8 °F 28.6 °F 30.2 °F 87% 29.74 in 0.8 mi Variable 5.8 mph - 0.06 in Snow Light Snow
6:51 PM 33.1 °F - 30.9 °F 92% 29.80 in 1.2 mi Calm Calm - 0.06 in Snow Light Snow
7:51 PM 33.1 °F 27.7 °F 30.9 °F 92% 29.83 in 7.0 mi West 5.8 mph - 0.00 in   Overcast
8:35 PM 33.8 °F 27.7 °F 30.2 °F 87% 29.78 in 10.0 mi WSW 6.9 mph - N/A   Mostly Cloudy
8:51 PM 33.1 °F 26.1 °F 30.0 °F 89% 29.84 in 10.0 mi WSW 8.1 mph - N/A   Mostly Cloudy
9:51 PM 32.0 °F 24.2 °F 27.0 °F 82% 29.86 in 10.0 mi WSW 9.2 mph 18.4 mph N/A   Overcast
10:51 PM 30.9 °F 23.5 °F 25.0 °F 79% 29.88 in 10.0 mi West 8.1 mph 20.7 mph N/A   Overcast
11:51 PM 30.0 °F 23.2 °F 24.1 °F 79% 29.90 in 10.0 mi West 6.9 mph - N/A   Overcast
11:59 PM 30.2 °F 21.9 °F 24.8 °F 80% 29.85 in 10.0 mi WSW 9.2 mph - N/A   Overcast